467  
ASUS44 KCRP 291611  
HRRCRP  
 
SOUTH TEXAS REGIONAL WEATHER ROUNDUP  
NATIONAL WEATHER SERVICE CORPUS CHRISTI TX  
1100 AM CDT WED MAR 29 2017  
 
TXZ229>244-291700-   
..CORPUS CHRISTI AREA OBSERVATIONS
 
 
 
CITY SKY/WX TMP DP RH WIND PRES REMARKS  
CORPUS CHRISTI PTSUNNY 73 60 63 NE9 29.79R  
NAS CORPUS CHR PTSUNNY 76 71 85 NE13 29.78R  
ROCKPORT N/A 70 65 84 E8 29.79R  
KINGSVILLE NAS PTSUNNY 82 62 50 NE10 29.79S  
ALICE PTSUNNY 76 58 53 NE7 29.80R  
ORANGE GROVE MOSUNNY 80 54 40 E8 29.81R  
FALFURRIAS SUNNY 80 55 42 NE10G16 29.79R  

 
   
..VICTORIA AREA OBSERVATIONS
 
 
 
CITY SKY/WX TMP DP RH WIND PRES REMARKS  
VICTORIA CLOUDY 69 59 70 NE3 29.80R  
BEEVILLE FAIR 76 63 63 E6 29.80R  
PLEASANTON SUNNY 74 60 61 CALM 29.82R  
SAN ANTONIO MOSUNNY 67 60 78 VRB5 29.83R  

 
   
..LAREDO AREA OBSERVATIONS
 
 
 
CITY SKY/WX TMP DP RH WIND PRES REMARKS  
LAREDO SUNNY 74 56 53 CALM 29.84R  
COTULLA SUNNY 74 53 48 CALM 29.83R  
DEL RIO SUNNY 69 51 52 CALM 29.82R  
MCALLEN MOSUNNY 84 71 65 N9 29.77R  
HEBBRONVILLE SUNNY 78 42 27 NE12 29.83R  

 
   
..OTHER TEXAS OBSERVATIONS
 
 
 
CITY SKY/WX TMP DP RH WIND PRES REMARKS  
BROWNSVILLE PTSUNNY 83 73 72 S12 29.77R  
HOUSTON TSTM 71 68 90 VRB7 29.86R VSB 1/2  
COL. STATION PTSUNNY 70 66 87 SE8 29.79S  
AUSTIN MOSUNNY 69 63 81 S3 29.81R  
WACO SUNNY 69 62 78 S16 29.78R  
FORT WORTH MOSUNNY 70 58 65 S22 29.71R  
WICHITA FALLS PTSUNNY 64 56 75 S18 29.67R  
LUBBOCK LGT RAIN 48 46 93 NW21 29.77R FOG  
EL PASO CLOUDY 54 35 48 N7 29.96R  

 
   
..MARINE OBSERVATIONS
 
 
 
STATION/POSITION TIME SKY/WX TEMP WIND PRES VSBY WAVE SWELL  
AIR SEA DIR/SP/G HT/PER HT/PER  
(UTC) (F) (DEG/KT/KT) (MB) (MI) (FT/S) (FT/S)  
PORT ARANSAS 1600 69 73 40/ 6/ 7 1008.6F  
BUOY 90 E PORT A 1450 75 73 160/ 8/ 10 1009.6 9/ 8 10/ 8  
BUOY 45 SE BAFFI 1450 73 160/ 10/ 10 1007.4 9/ 8 8/ 8  
BUOY 200 E PT IS 1450 78 77 150/ 23/ 29 1008.3 10/ 8 5/21  
BUOY 15 E GALVES 1450 73 72 100/ 12/ 14 1010.4 6/ 8 5/ 8  

 
 
 
CLICK HERE TO GO TO PREVIOUS BULLETINS.

The Nexlab TX Page Main Text Page